Time,TemperatureF,DewpointF,PressureIn,WindDirection,WindDirectionDegrees,WindSpeedMPH,WindSpeedGustMPH,Humidity,HourlyPrecipIn,Conditions,Clouds,dailyrainin,SoftwareType,DateUTC
2013-07-29 00:02:00,54.0,49.0,29.96,East,89,0.0,0.0,83,0.00,,,0.00,,2013-07-29 05:02:00,
2013-07-29 00:22:00,54.0,49.0,29.96,East,89,0.0,0.0,82,0.00,,,0.00,,2013-07-29 05:22:00,
2013-07-29 00:32:00,53.0,48.0,29.96,East,89,0.0,0.0,84,0.00,,,0.00,,2013-07-29 05:32:00,
2013-07-29 00:53:00,52.0,48.0,29.96,SSE,162,0.0,0.0,85,0.00,,,0.00,,2013-07-29 05:53:00,
2013-07-29 01:02:00,51.0,48.0,29.95,SSE,162,0.0,0.0,88,0.00,,,0.00,,2013-07-29 06:02:00,
2013-07-29 01:12:00,52.0,48.0,29.95,East,84,0.0,1.0,85,0.00,,,0.00,,2013-07-29 06:12:00,
2013-07-29 01:22:00,52.0,48.0,29.95,East,84,0.0,1.0,85,0.00,,,0.00,,2013-07-29 06:22:00,
2013-07-29 01:32:00,53.0,49.0,29.95,East,88,0.0,2.0,85,0.00,,,0.00,,2013-07-29 06:32:00,
2013-07-29 01:43:00,52.0,49.0,29.95,East,87,1.0,2.0,88,0.00,,,0.00,,2013-07-29 06:43:00,
2013-07-29 01:52:00,52.0,49.0,29.95,East,87,1.0,2.0,88,0.00,,,0.00,,2013-07-29 06:52:00,
2013-07-29 02:02:00,53.0,49.0,29.95,East,101,1.0,2.0,86,0.00,,,0.00,,2013-07-29 07:02:00,
2013-07-29 02:12:00,52.0,48.0,29.95,East,100,1.0,2.0,86,0.00,,,0.00,,2013-07-29 07:12:00,
2013-07-29 02:22:00,52.0,48.0,29.95,East,100,1.0,2.0,86,0.00,,,0.00,,2013-07-29 07:22:00,
2013-07-29 02:33:00,51.0,47.0,29.95,ESE,111,0.0,0.0,85,0.00,,,0.00,,2013-07-29 07:33:00,
2013-07-29 02:43:00,50.0,46.0,29.95,ESE,111,0.0,0.0,87,0.00,,,0.00,,2013-07-29 07:43:00,
2013-07-29 02:53:00,50.0,46.0,29.95,ESE,111,0.0,0.0,87,0.00,,,0.00,,2013-07-29 07:53:00,
2013-07-29 03:02:00,49.0,46.0,29.95,ESE,112,0.0,1.0,90,0.00,,,0.00,,2013-07-29 08:02:00,
2013-07-29 03:12:00,50.0,47.0,29.95,ESE,111,0.0,1.0,89,0.00,,,0.00,,2013-07-29 08:12:00,
2013-07-29 03:22:00,50.0,47.0,29.95,ESE,111,0.0,1.0,89,0.00,,,0.00,,2013-07-29 08:22:00,
2013-07-29 03:33:00,49.0,46.0,29.95,ESE,115,0.0,1.0,90,0.00,,,0.00,,2013-07-29 08:33:00,
2013-07-29 03:42:00,49.0,46.0,29.95,ESE,116,0.0,1.0,89,0.00,,,0.00,,2013-07-29 08:42:00,
2013-07-29 03:52:00,49.0,46.0,29.95,ESE,116,0.0,1.0,89,0.00,,,0.00,,2013-07-29 08:52:00,
2013-07-29 04:02:00,49.0,46.0,29.95,ESE,116,0.0,0.0,88,0.00,,,0.00,,2013-07-29 09:02:00,
2013-07-29 04:12:00,48.0,45.0,29.95,ESE,116,0.0,0.0,90,0.00,,,0.00,,2013-07-29 09:12:00,
2013-07-29 04:22:00,48.0,45.0,29.95,ESE,116,0.0,0.0,90,0.00,,,0.00,,2013-07-29 09:22:00,
2013-07-29 04:33:00,47.0,45.0,29.95,ESE,115,0.0,0.0,91,0.00,,,0.00,,2013-07-29 09:33:00,
2013-07-29 04:43:00,48.0,46.0,29.95,ESE,116,0.0,0.0,92,0.00,,,0.00,,2013-07-29 09:43:00,
2013-07-29 04:53:00,48.0,46.0,29.95,ESE,116,0.0,0.0,92,0.00,,,0.00,,2013-07-29 09:53:00,
2013-07-29 05:13:00,49.0,46.0,29.94,ESE,110,0.0,1.0,89,0.00,,,0.00,,2013-07-29 10:13:00,
2013-07-29 05:24:00,48.0,45.0,29.94,East,81,0.0,1.0,88,0.00,,,0.00,,2013-07-29 10:24:00,
2013-07-29 05:35:00,48.0,45.0,29.94,SE,128,1.0,3.0,91,0.00,,,0.00,,2013-07-29 10:35:00,
2013-07-29 05:47:00,48.0,45.0,29.94,SE,128,1.0,3.0,91,0.00,,,0.00,,2013-07-29 10:47:00,
2013-07-29 06:03:00,47.0,45.0,29.94,ESE,116,0.0,1.0,91,0.00,,,0.00,,2013-07-29 11:03:00,
2013-07-29 06:15:00,47.0,45.0,29.94,ESE,116,0.0,1.0,91,0.00,,,0.00,,2013-07-29 11:15:00,
2013-07-29 06:23:00,47.0,45.0,29.94,ESE,114,0.0,1.0,92,0.00,,,0.00,,2013-07-29 11:23:00,
2013-07-29 06:34:00,47.0,45.0,29.95,ESE,108,1.0,1.0,92,0.00,,,0.00,,2013-07-29 11:34:00,
2013-07-29 06:44:00,47.0,45.0,29.95,ESE,108,1.0,1.0,92,0.00,,,0.00,,2013-07-29 11:44:00,
2013-07-29 06:59:00,48.0,46.0,29.96,ESE,118,0.0,0.0,92,0.00,,,0.00,,2013-07-29 11:59:00,
2013-07-29 07:14:00,49.0,46.0,29.96,SSE,159,0.0,2.0,90,0.00,,,0.00,,2013-07-29 12:14:00,
2013-07-29 07:25:00,50.0,47.0,29.96,SE,141,0.0,3.0,89,0.00,,,0.00,,2013-07-29 12:25:00,
2013-07-29 07:35:00,51.0,47.0,29.96,SE,141,0.0,2.0,87,0.00,,,0.00,,2013-07-29 12:35:00,
2013-07-29 07:44:00,51.0,47.0,29.96,SE,141,0.0,2.0,87,0.00,,,0.00,,2013-07-29 12:44:00,
2013-07-29 07:57:00,54.0,49.0,29.96,SSE,152,0.0,2.0,83,0.00,,,0.00,,2013-07-29 12:57:00,
2013-07-29 08:26:00,59.0,52.0,29.96,SE,135,0.0,3.0,79,0.00,,,0.00,,2013-07-29 13:26:00,
2013-07-29 08:35:00,59.0,52.0,29.96,SE,126,2.0,5.0,78,0.00,,,0.00,,2013-07-29 13:35:00,
2013-07-29 08:43:00,59.0,52.0,29.96,SE,126,2.0,5.0,78,0.00,,,0.00,,2013-07-29 13:43:00,
2013-07-29 08:57:00,60.0,53.0,29.96,ESE,116,2.0,3.0,79,0.00,,,0.00,,2013-07-29 13:57:00,
2013-07-29 09:12:00,61.0,54.0,29.96,SE,127,1.0,6.0,77,0.00,,,0.00,,2013-07-29 14:12:00,
2013-07-29 09:34:00,62.0,54.0,29.96,SSE,150,1.0,7.0,76,0.00,,,0.00,,2013-07-29 14:34:00,
2013-07-29 09:44:00,62.0,54.0,29.96,SSE,150,1.0,7.0,76,0.00,,,0.00,,2013-07-29 14:44:00,
2013-07-29 09:57:00,63.0,55.0,29.97,SE,138,1.0,6.0,75,0.00,,,0.00,,2013-07-29 14:57:00,
2013-07-29 10:06:00,63.0,55.0,29.96,SSW,200,1.0,6.0,75,0.00,,,0.00,,2013-07-29 15:06:00,
2013-07-29 10:13:00,63.0,55.0,29.96,SSW,200,1.0,6.0,75,0.00,,,0.00,,2013-07-29 15:13:00,
2013-07-29 10:24:00,64.0,56.0,29.96,West,260,2.0,4.0,75,0.00,,,0.00,,2013-07-29 15:24:00,
2013-07-29 10:36:00,66.0,56.0,29.96,SSW,200,3.0,7.0,70,0.00,,,0.00,,2013-07-29 15:36:00,
2013-07-29 10:44:00,66.0,56.0,29.96,SSW,200,3.0,7.0,70,0.00,,,0.00,,2013-07-29 15:44:00,
2013-07-29 10:55:00,66.0,56.0,29.96,South,180,5.0,11.0,69,0.00,,,0.00,,2013-07-29 15:55:00,
2013-07-29 11:04:00,67.0,57.0,29.95,South,188,4.0,8.0,70,0.00,,,0.00,,2013-07-29 16:04:00,
2013-07-29 11:23:00,68.0,56.0,29.95,South,183,3.0,7.0,66,0.00,,,0.00,,2013-07-29 16:23:00,
2013-07-29 11:36:00,69.0,56.0,29.95,WSW,251,3.0,10.0,64,0.00,,,0.00,,2013-07-29 16:36:00,
2013-07-29 11:44:00,69.0,56.0,29.95,WSW,251,3.0,10.0,64,0.00,,,0.00,,2013-07-29 16:44:00,
2013-07-29 11:57:00,70.0,56.0,29.95,SSE,151,6.0,12.0,61,0.00,,,0.00,,2013-07-29 16:57:00,
2013-07-29 12:07:00,71.0,56.0,29.94,SSE,159,6.0,14.0,60,0.00,,,0.00,,2013-07-29 17:07:00,
2013-07-29 12:13:00,71.0,56.0,29.94,SSE,159,6.0,14.0,60,0.00,,,0.00,,2013-07-29 17:13:00,
2013-07-29 12:23:00,72.0,57.0,29.94,South,183,3.0,9.0,60,0.00,,,0.00,,2013-07-29 17:23:00,
2013-07-29 12:38:00,72.0,57.0,29.93,South,172,3.0,10.0,60,0.00,,,0.00,,2013-07-29 17:38:00,
2013-07-29 12:44:00,72.0,57.0,29.93,South,172,3.0,10.0,60,0.00,,,0.00,,2013-07-29 17:44:00,
2013-07-29 12:59:00,72.0,57.0,29.93,South,176,5.0,11.0,59,0.00,,,0.00,,2013-07-29 17:59:00,
2013-07-29 13:13:00,72.0,56.0,29.93,SSE,166,7.0,15.0,58,0.00,,,0.00,,2013-07-29 18:13:00,
2013-07-29 13:25:00,73.0,56.0,29.93,SSE,148,5.0,14.0,56,0.00,,,0.00,,2013-07-29 18:25:00,
2013-07-29 13:34:00,73.0,56.0,29.93,SSE,164,6.0,14.0,55,0.00,,,0.00,,2013-07-29 18:34:00,
2013-07-29 13:58:00,75.0,56.0,29.93,South,176,6.0,14.0,51,0.00,,,0.00,,2013-07-29 18:58:00,
2013-07-29 14:15:00,75.0,56.0,29.91,SSE,160,7.0,16.0,51,0.00,,,0.00,,2013-07-29 19:15:00,
2013-07-29 14:25:00,76.0,55.0,29.91,South,179,9.0,17.0,49,0.00,,,0.00,,2013-07-29 19:25:00,
2013-07-29 14:36:00,76.0,55.0,29.91,SSW,200,11.0,17.0,48,0.00,,,0.00,,2013-07-29 19:36:00,
2013-07-29 14:45:00,76.0,55.0,29.91,SSW,200,11.0,17.0,48,0.00,,,0.00,,2013-07-29 19:45:00,
2013-07-29 14:58:00,77.0,56.0,29.91,SW,214,6.0,13.0,49,0.00,,,0.00,,2013-07-29 19:58:00,
2013-07-29 15:04:00,78.0,56.0,29.91,South,190,11.0,17.0,47,0.00,,,0.00,,2013-07-29 20:04:00,
2013-07-29 15:15:00,78.0,56.0,29.91,South,190,11.0,17.0,47,0.00,,,0.00,,2013-07-29 20:15:00,
2013-07-29 15:24:00,78.0,56.0,29.90,South,183,9.0,15.0,46,0.00,,,0.00,,2013-07-29 20:24:00,
2013-07-29 15:33:00,78.0,56.0,29.90,SSW,212,12.0,15.0,46,0.00,,,0.00,,2013-07-29 20:33:00,
2013-07-29 15:47:00,78.0,56.0,29.90,SSW,212,12.0,15.0,46,0.00,,,0.00,,2013-07-29 20:47:00,
2013-07-29 15:58:00,77.0,55.0,29.90,SSE,167,8.0,15.0,46,0.00,,,0.00,,2013-07-29 20:58:00,
2013-07-29 16:04:00,78.0,57.0,29.89,SSW,193,7.0,14.0,48,0.00,,,0.00,,2013-07-29 21:04:00,
2013-07-29 16:16:00,78.0,57.0,29.89,SSW,193,7.0,14.0,48,0.00,,,0.00,,2013-07-29 21:16:00,
2013-07-29 16:24:00,76.0,56.0,29.89,SSE,162,4.0,13.0,50,0.00,,,0.00,,2013-07-29 21:24:00,
2013-07-29 16:34:00,76.0,57.0,29.89,South,188,6.0,14.0,52,0.00,,,0.00,,2013-07-29 21:34:00,
2013-07-29 16:46:00,76.0,57.0,29.89,South,188,6.0,14.0,52,0.00,,,0.00,,2013-07-29 21:46:00,
2013-07-29 17:00:00,76.0,57.0,29.90,SSW,207,10.0,14.0,51,0.00,,,0.00,,2013-07-29 22:00:00,
2013-07-29 17:15:00,77.0,57.0,29.89,South,179,10.0,17.0,51,0.00,,,0.00,,2013-07-29 22:15:00,
2013-07-29 17:24:00,76.0,56.0,29.90,SSW,212,10.0,16.0,50,0.00,,,0.00,,2013-07-29 22:24:00,
2013-07-29 17:43:00,76.0,57.0,29.90,South,190,9.0,15.0,52,0.00,,,0.00,,2013-07-29 22:43:00,
2013-07-29 18:04:00,76.0,57.0,29.90,SSW,200,7.0,16.0,51,0.00,,,0.00,,2013-07-29 23:04:00,
2013-07-29 18:13:00,76.0,57.0,29.90,SSW,200,7.0,16.0,51,0.00,,,0.00,,2013-07-29 23:13:00,
2013-07-29 18:26:00,76.0,57.0,29.90,SSW,200,10.0,17.0,52,0.00,,,0.00,,2013-07-29 23:26:00,
2013-07-29 18:34:00,74.0,57.0,29.90,SSW,200,8.0,16.0,56,0.00,,,0.00,,2013-07-29 23:34:00,
2013-07-29 18:44:00,74.0,57.0,29.90,SSW,200,8.0,16.0,56,0.00,,,0.00,,2013-07-29 23:44:00,
2013-07-29 19:05:00,73.0,57.0,29.89,SSW,200,9.0,14.0,57,0.00,,,0.00,,2013-07-30 00:05:00,
2013-07-29 19:16:00,73.0,57.0,29.89,SSW,200,9.0,14.0,57,0.00,,,0.00,,2013-07-30 00:16:00,
2013-07-29 19:24:00,73.0,57.0,29.89,SSW,203,8.0,17.0,57,0.00,,,0.00,,2013-07-30 00:24:00,
2013-07-29 19:34:00,73.0,58.0,29.89,South,186,6.0,14.0,59,0.00,,,0.00,,2013-07-30 00:34:00,
2013-07-29 19:46:00,73.0,58.0,29.89,South,186,6.0,14.0,59,0.00,,,0.00,,2013-07-30 00:46:00,
2013-07-29 19:55:00,72.0,58.0,29.89,SSW,210,6.0,12.0,62,0.00,,,0.00,,2013-07-30 00:55:00,
2013-07-29 20:16:00,71.0,58.0,29.89,SSE,161,8.0,13.0,63,0.00,,,0.00,,2013-07-30 01:16:00,
2013-07-29 20:23:00,70.0,57.0,29.89,South,173,6.0,11.0,64,0.00,,,0.00,,2013-07-30 01:23:00,
2013-07-29 20:35:00,70.0,57.0,29.89,SSW,194,7.0,12.0,64,0.00,,,0.00,,2013-07-30 01:35:00,
2013-07-29 20:44:00,70.0,57.0,29.89,SSW,194,7.0,12.0,64,0.00,,,0.00,,2013-07-30 01:44:00,
2013-07-29 21:13:00,69.0,58.0,29.88,SSW,207,3.0,7.0,68,0.00,,,0.00,,2013-07-30 02:13:00,
2013-07-29 21:23:00,68.0,57.0,29.89,SSE,166,3.0,6.0,68,0.00,,,0.00,,2013-07-30 02:23:00,
2013-07-29 21:35:00,68.0,58.0,29.89,South,179,3.0,6.0,70,0.00,,,0.00,,2013-07-30 02:35:00,
2013-07-29 21:45:00,68.0,58.0,29.89,South,179,3.0,6.0,70,0.00,,,0.00,,2013-07-30 02:45:00,
2013-07-29 21:56:00,68.0,58.0,29.90,SSW,195,5.0,8.0,70,0.00,,,0.00,,2013-07-30 02:56:00,
2013-07-29 22:07:00,68.0,58.0,29.90,SSW,195,5.0,8.0,70,0.00,,,0.00,,2013-07-30 03:07:00,
2013-07-29 22:16:00,67.0,60.0,29.91,SSW,197,2.0,6.0,77,0.00,,,0.00,,2013-07-30 03:16:00,
2013-07-29 22:24:00,66.0,59.0,29.92,SSW,195,2.0,6.0,79,0.01,,,0.01,,2013-07-30 03:24:00,
2013-07-29 22:34:00,65.0,59.0,29.93,SSW,206,3.0,9.0,81,0.03,,,0.03,,2013-07-30 03:34:00,
2013-07-29 22:43:00,65.0,59.0,29.93,SSW,206,3.0,9.0,81,0.03,,,0.03,,2013-07-30 03:43:00,
2013-07-29 22:52:00,64.0,59.0,29.93,SW,221,4.0,8.0,85,0.05,,,0.05,,2013-07-30 03:52:00,
2013-07-29 23:03:00,63.0,59.0,29.93,SSW,211,6.0,11.0,86,0.07,,,0.08,,2013-07-30 04:03:00,
2013-07-29 23:12:00,63.0,59.0,29.93,SSW,211,6.0,11.0,86,0.07,,,0.08,,2013-07-30 04:12:00,
2013-07-29 23:23:00,63.0,59.0,29.93,SSW,196,6.0,12.0,88,0.07,,,0.08,,2013-07-30 04:23:00,
2013-07-29 23:33:00,63.0,59.0,29.93,SSW,196,6.0,12.0,88,0.07,,,0.08,,2013-07-30 04:33:00,
2013-07-29 23:43:00,62.0,59.0,29.92,South,186,5.0,9.0,89,0.05,,,0.08,,2013-07-30 04:43:00,
2013-07-29 23:53:00,62.0,59.0,29.92,SSW,201,5.0,10.0,90,0.03,,,0.08,,2013-07-30 04:53:00,